Weather History for LEPA - February, 2014

Change the Weather History Date:

Friday, February 14, 2014

  Actual Average Record
Temperature  
Mean Temperature 56 °F -  
Max Temperature 65 °F 59 °F 66 °F (1997)
Min Temperature 48 °F 40 °F 28 °F (2012)
Degree Days  
Heating Degree Days 8    
Growing Degree Days 6 (Base 50)    
Moisture  
Dew Point 53 °F    
Average Humidity 88    
Maximum Humidity 100    
Minimum Humidity 64    
Precipitation  
Precipitation 0.00 in 0.05 in - ()
Sea Level Pressure  
Sea Level Pressure 29.97 in    
Wind  
Wind Speed 5 mph ()    
Max Wind Speed 16 mph    
Max Gust Speed -    
Visibility 7.0 miles    
Events Fog    
Averages and records for this station are not official NWS values.
T = Trace of Precipitation, MM = Missing Value Source: Averaged Metar Reports

Daily Weather History Graph

Daily Weather History Graph

Search for Another Location

Airport or City:

Trip Planner

Search our weather history database for the weather conditions in past years. The results will help you decide how hot, cold, wet, or windy it might be!

Date:

Astronomy

Feb. 14, 2014 Rise Set
Actual Time 7:42 AM CET 6:24 PM CET
Civil Twilight 7:15 AM CET 6:51 PM CET
Nautical Twilight 6:43 AM CET 7:23 PM CET
Astronomical Twilight 6:12 AM CET 7:54 PM CET
Moon 6:13 PM CET (2/14) 7:01 AM CET (2/14)
Length of Visible Light 11h 36m
Length of Day
10h 41m
Full, 100% of the Moon is Illuminated
Feb 14
Full
Feb 15
Full
Feb 22
Last Quarter
Mar 1
New
Mar 8
First Quarter

Hourly Weather History & Observations

Time (CET) Temp. Dew Point Humidity Pressure Visibility Wind Dir Wind Speed Gust Speed Precip Events Conditions
12:00 AM 53 °F 51 °F 90% 30.01 in - Calm Calm - -  
12:00 AM 53.6 °F 51.8 °F 94% 30.01 in - Variable 1.2 mph - N/A   Clear
12:30 AM 51.8 °F 48.2 °F 88% 30.01 in - Calm Calm - N/A   Clear
1:00 AM 50 °F 48 °F 91% 30.02 in 11 mi East 2.3 mph - -   Clear
1:00 AM 50.0 °F 50.0 °F 100% 30.01 in - Calm Calm - N/A   Clear
1:30 AM 50.0 °F 48.2 °F 94% 30.01 in - NE 3.5 mph - N/A   Clear
2:00 AM 50 °F 49 °F 95% 30.02 in - ENE 3.5 mph - -  
2:00 AM 51.8 °F 50.0 °F 94% 30.01 in - Variable 1.2 mph - N/A   Clear
2:30 AM 50.0 °F 50.0 °F 100% 30.01 in - Variable 1.2 mph - N/A   Clear
3:00 AM 49 °F 48 °F 97% 30.02 in - East 1.2 mph - -  
3:00 AM 50.0 °F 48.2 °F 94% 30.01 in - SSE 1.2 mph - N/A   Clear
3:30 AM 50.0 °F 48.2 °F 94% 30.01 in - South 1.2 mph - N/A   Clear
4:00 AM 49 °F 48 °F 97% 30.01 in 9 mi East 3.5 mph - -   Scattered Clouds
4:00 AM 50.0 °F 48.2 °F 94% 30.01 in - ENE 3.5 mph - N/A   Clear
4:30 AM 48.2 °F 48.2 °F 100% 29.98 in - Calm Calm - N/A   Clear
5:00 AM 50 °F 49 °F 94% 30.00 in - East 3.5 mph - -  
5:00 AM 50.0 °F 48.2 °F 94% 29.98 in 6.2 mi ENE 3.5 mph - N/A   Partly Cloudy
5:30 AM 53.6 °F 53.6 °F 100% 29.98 in 6.2 mi SW 8.1 mph - N/A   Partly Cloudy
6:00 AM 54 °F 51 °F 88% 29.99 in - ESE 1.2 mph - -  
6:00 AM 55.4 °F 53.6 °F 94% 29.98 in 6.2 mi NW 1.2 mph - N/A   Partly Cloudy
6:30 AM 51.8 °F 50.0 °F 94% 29.98 in 6.2 mi WSW 1.2 mph - N/A   Partly Cloudy
7:00 AM 56 °F 53 °F 88% 29.99 in 16 mi SW 13.8 mph - -   Scattered Clouds
7:00 AM 57.2 °F 53.6 °F 88% 29.98 in 6.2 mi SW 5.8 mph - N/A   Partly Cloudy
7:30 AM 57.2 °F 53.6 °F 88% 29.98 in 6.2 mi SW 10.4 mph - N/A   Partly Cloudy
8:00 AM 57 °F 53 °F 83% 30.00 in - WSW 13.8 mph - -  
8:00 AM 57.2 °F 53.6 °F 88% 29.98 in 6.2 mi WSW 10.4 mph - N/A   Partly Cloudy
8:30 AM 57.2 °F 53.6 °F 88% 30.01 in 6.2 mi WSW 10.4 mph - N/A   Partly Cloudy
9:00 AM 60 °F 54 °F 74% 30.01 in - SW 16.1 mph - -  
9:00 AM 59.0 °F 53.6 °F 82% 30.01 in - WSW 12.7 mph - N/A   Clear
9:30 AM 60.8 °F 55.4 °F 82% 30.01 in - WSW 15.0 mph - N/A   Clear
10:00 AM 62 °F 55 °F 70% 30.01 in 19 mi WSW 16.1 mph - -   Clear
10:00 AM 60.8 °F 55.4 °F 82% 30.01 in - WSW 13.8 mph - N/A   Clear
10:30 AM 62.6 °F 55.4 °F 77% 30.01 in - SW 13.8 mph - N/A   Clear
11:00 AM 64 °F 55 °F 66% 30.02 in - SSW 13.8 mph - -  
11:00 AM 62.6 °F 55.4 °F 77% 30.01 in 6.2 mi SW 16.1 mph - N/A   Partly Cloudy
11:30 AM 62.6 °F 55.4 °F 77% 30.01 in 6.2 mi SW 12.7 mph - N/A   Partly Cloudy
12:00 PM 65 °F 56 °F 64% 30.01 in - SSW 9.2 mph - -  
12:00 PM 62.6 °F 55.4 °F 77% 30.01 in 6.2 mi SW 10.4 mph - N/A   Partly Cloudy
12:30 PM 64.4 °F 55.4 °F 73% 29.98 in 6.2 mi SSW 10.4 mph - N/A   Partly Cloudy
1:00 PM 64 °F 56 °F 68% 29.99 in 19 mi SSW 10.4 mph - -   Clear
1:00 PM 62.6 °F 55.4 °F 77% 29.98 in - SSW 11.5 mph - N/A   Clear
1:30 PM 62.6 °F 55.4 °F 77% 29.98 in 6.2 mi SSW 11.5 mph - N/A   Partly Cloudy
2:00 PM 64 °F 56 °F 68% 29.97 in - South 11.5 mph - -  
2:00 PM 62.6 °F 55.4 °F 77% 29.95 in 6.2 mi SSW 10.4 mph - N/A   Partly Cloudy
2:30 PM 62.6 °F 55.4 °F 77% 29.95 in 6.2 mi SSW 12.7 mph - N/A   Partly Cloudy
3:00 PM 64 °F 57 °F 70% 29.95 in - SSW 11.5 mph - -  
3:00 PM 62.6 °F 57.2 °F 82% 29.95 in 6.2 mi SSW 10.4 mph - N/A   Partly Cloudy
3:30 PM 60.8 °F 57.2 °F 88% 29.92 in 6.2 mi SSW 10.4 mph - N/A   Partly Cloudy
4:00 PM 63 °F 56 °F 73% 29.94 in 19 mi SSW 9.2 mph - -   Scattered Clouds
4:00 PM 62.6 °F 57.2 °F 82% 29.92 in 6.2 mi SW 8.1 mph - N/A   Partly Cloudy
4:30 PM 60.8 °F 57.2 °F 88% 29.92 in 6.2 mi SSW 6.9 mph - N/A   Partly Cloudy
5:00 PM 61 °F 56 °F 77% 29.92 in - SSW 8.1 mph - -  
5:00 PM 60.8 °F 55.4 °F 82% 29.92 in 6.2 mi SW 5.8 mph - N/A   Partly Cloudy
5:30 PM 59.0 °F 55.4 °F 88% 29.92 in 6.2 mi SW 9.2 mph - N/A   Scattered Clouds
6:00 PM 56 °F 54 °F 93% 29.92 in - SSW 10.4 mph - -  
6:00 PM 55.4 °F 55.4 °F 100% 29.92 in 6.2 mi SW 6.9 mph - N/A   Mostly Cloudy
6:30 PM 55.4 °F 55.4 °F 100% 29.92 in 6.2 mi SW 5.8 mph - N/A   Mostly Cloudy
7:00 PM 56 °F 55 °F 94% 29.92 in 9 mi WSW 2.3 mph - -   Partly Cloudy
7:00 PM 57.2 °F 55.4 °F 94% 29.92 in 6.2 mi Variable 2.3 mph - N/A   Mostly Cloudy
7:30 PM 55.4 °F 55.4 °F 100% 29.92 in 6.2 mi SW 1.2 mph - N/A   Mostly Cloudy
8:00 PM 56 °F 54 °F 93% 29.92 in - Calm Calm - -  
8:00 PM 55.4 °F 55.4 °F 100% 29.92 in 6.2 mi Calm Calm - N/A   Mostly Cloudy
8:30 PM 57.2 °F 55.4 °F 94% 29.92 in 6.2 mi Calm Calm - N/A   Mostly Cloudy
9:00 PM 55 °F 54 °F 94% 29.91 in - Calm Calm - -  
9:00 PM 55.4 °F 53.6 °F 94% 29.89 in 5.6 mi East 1.2 mph - N/A   Partly Cloudy
9:30 PM 53.6 °F 53.6 °F 100% 29.92 in 5.6 mi Variable 1.2 mph - N/A   Partly Cloudy
10:00 PM 52 °F 51 °F 95% 29.91 in 5 mi ESE 1.2 mph - -   Mist
10:00 PM 51.8 °F 51.8 °F 100% 29.89 in 5.6 mi Calm Calm - N/A   Partly Cloudy
10:30 PM 51.8 °F 50.0 °F 94% 29.89 in 4.3 mi Variable 1.2 mph - N/A   Partly Cloudy
10:40 PM 50.0 °F 50.0 °F 100% 29.89 in 2.8 mi Calm Calm - N/A   Partly Cloudy
11:00 PM 50 °F 49 °F 96% 29.90 in - Calm Calm - -  
11:00 PM 50.0 °F 50.0 °F 100% 29.89 in 2.5 mi Calm Calm - N/A Fog Patches of Fog
11:21 PM 50.0 °F 50.0 °F 100% 29.89 in 0.5 mi ENE 1.2 mph - N/A Fog Patches of Fog
11:30 PM 50.0 °F 50.0 °F 100% 29.89 in 0.5 mi Variable 1.2 mph - N/A Fog Patches of Fog